Tracking 29606 objects as of 19-Sep-2024
HD Live streaming from Space Station
objects crossing your sky now

STARLINK-32281

Track STARLINK-32281 now!
10-day predictions
STARLINK-32281 is classified as:


NORAD ID: 60375
Int'l Code: 2024-138W
Perigee: 453.7 km
Apogee: 455.3 km
Inclination: 53.2 °
Period: 93.5 minutes
Semi major axis: 6825 km
RCS: Unknown
Launch date: August 4, 2024
Source: United States (US)
Launch site: AIR FORCE WESTERN TEST RANGE (AFWTR)
Your satellite tracking list
Your tracking list is empty




NASA's NSSDC Master Catalog

Two Line Element Set (TLE):
1 60375U 24138W   24262.38635456 -.00001998  00000-0 -40018-4 0  9991
2 60375  53.1592 292.4496 0001161  96.1483 263.9655 15.39588481  8167
Source of the keplerian elements: AFSPC